Location: Unspecified
(0.0000°N, 0.0000°E)
Time: 03:34:39
(UTC+00:00)

Vanguard 1 - Pass Details

Date: 15 December 2023
Orbit: 653 x 3826 km, 34.3° (Epoch: 22 February)

Event Time Altitude Azimuth Distance (km) Brightness Sun altitude
Rises 13:09:41 0° 268° (W) 3,150 12.9 60.5°
Reaches altitude 10° 13:12:15 10° 285° (WNW) 2,415 12.4 60.1°
Maximum altitude 13:16:36 23° 336° (NNW) 2,060 11.9 59.4°
Drops below altitude 10° 13:22:47 10° 25° (NNE) 3,548 12.7 58.4°
Sets 13:27:39 0° 38° (NE) 5,125 13.4 57.6°
